Location: Lango�lan
(48.1202°N, 3.2340°W)
Time: 05:39:48
(UTC+00:00)

Cosmos 1626 Rocket - Pass Details

Date: 23 October 2019
Orbit: 604 x 630 km, 82.5° (Epoch: 17 November)

Event Time Altitude Azimuth Distance (km) Brightness Sun altitude
Rises 05:31:44 0° 189° (S) 2,845 6.9 -12.7°
Reaches altitude 10° 05:33:56 10° 190° (S) 1,947 6.0 -12.3°
Maximum altitude 05:38:15 85° 280° (W) 615 3.5 -11.6°
Drops below altitude 10° 05:42:37 10° 9° (N) 1,971 6.2 -10.8°
Sets 05:44:51 0° 10° (N) 2,884 7.1 -10.5°
